STARLINK-11198, 60114

Orbit data source: Space-Track

STARLINK-11198, 60114 is a payload satellite owned by SpaceX/Seattle (US) in LEO that was launched on Mon, 24 Jun 2024 UTC via an FALCON 9 launch vehicle from the Air Force Western Test Range (AFWTR). Payload-class satellites include a variety of spacecraft equipped with specific instruments for various scientific and technological missions. These include communications satellites like Starlink; space stations such as the ISS; scientific satellites like the Hubble; Earth observation satellites from companies like Planet Labs, Umbra, and HawkEye 360; GPS; miniature CubeSats for education and research; and military/defense satellites.

Loading next visibility...
Identifier
60114, 2024-118B
Orbit
LEO
Last TLE update
9 hours ago
Origin
Manufacturer
SpaceX/Seattle
Mission
Operational spacecraft
Bus & Motor
STARLINK V2M, Unknown motor
Mass
730 kg wet, ~700 kg dry
Launch date (UTC)
2024-06-24 (1 year ago)
Launch vehicle
FALCON 9
Launch site
Air Force Western Test Range (AFWTR)
Object type
Payload
Rocket body
Debris
Shape & HBR
Unknown
Radar Cross Section
Large (>1 m²)

Expand to show TLE details & history

TLE from 9 hours ago
0 STARLINK-11198
1 60114U 24118B   25188.45989236 -.00001605  00000-0 -84004-5 0  9993
2 60114  53.1593 350.4202 0000713  65.7871 294.3221 15.69698670 59476
Epoch: 2025-07-07T11:02Z
TLE epoch observation values (Epoch: 2025-07-07T11:02:14.699Z)
Latitude
-0.00007°
Longitude
-100.81002°
Altitude
360.476 km
Speed
7.694 km/s
True Right ascension
23h 21m 40s
True Declination
0° 00' 00"
Sunlit
Object was in full shadow at epoch
Visualization orbit readout
Latitude
48.71761°
Longitude
-44.70072°
Altitude
364.793 km
Speed
7.697 km/s
Apparent Right ascension
23h 37m 29s
Apparent Declination
9° 00' 14"
Sunlit
Object is in daylight
Visualization observer readout
Local Sidereal Time
08:33:47
Azimuth
308.323° NW
Elevation
-25.246°
Doppler factor
1
Orbital elements
Apogee altitude
360.5 km
Perigee altitude
359.54 km
Semi-major axis
6,738.157 km
Eccentricity
0.00007
Inclination
53.1593°
RAAN
350.4202°
Arg. of periapsis
65.7871°
True anomaly
Unknown
Mean anomaly
294.3221°
Eccentric anomaly
Unknown
Mean motion
3.92402 °/min
Orbital period
91.74 mins
BSTAR
-0.0000084004
Loading maneuver chart data...
Loading SW <> Apogee altitude chart data...
Loading historical data...
Loading historical data...
Loading historical data...
Loading historical data...
Loading historical data...
Loading historical data...
Loading historical data...

STARLINK-11198 Visibility forecast

Observer location: undefined°, undefined°

Span
Click to sort rows by Start time (UTC) header in descending order
Start Az.
Max El. time (UTC)
Max El. Az.
Max El.
End time (UTC)
End Az.
4 mins2025-07-07 20:43:01.750Z302.523° NW2025-07-07 20:45:01.750Z211.274° SW42.843°2025-07-07 20:47:01.750Z141.152° SSE
4 mins2025-07-08 13:12:01.750Z212.554° SW2025-07-08 13:14:01.750Z119.39° SE40.325°2025-07-08 13:16:01.750Z59.799° ENE
4 mins2025-07-08 19:37:01.750Z337.852° N2025-07-08 19:39:01.750Z59.826° ENE29.538°2025-07-08 19:41:01.750Z102.977° ESE
|